Location: Carrières
(48.9495°N, 2.0407°E)
Time: 09:27:42
(UTC+00:00)

Cosmos 1241 Rocket - Pass Details

Date: 02 October 2023
Orbit: 941 x 1006 km, 65.8° (Epoch: 06 December)

Event Time Altitude Azimuth Distance (km) Brightness Sun altitude
Rises 18:06:32 0° 321° (NW) 3,654 8.2 -6.9°
Reaches altitude 10° 18:09:08 10° 318° (NW) 2,696 7.5 -7.4°
Maximum altitude 18:15:17 60° 240° (WSW) 1,077 5.1 -8.4°
Drops below altitude 10° 18:21:21 10° 162° (SSE) 2,652 6.6 -9.4°
Sets 18:23:54 0° 159° (SSE) 3,590 7.2 -9.8°
